Location: Gull Harbor
(47.1000°N, 122.9000°W)
Time: 14:12:19
(UTC-07:00)

STARLINK-2646 - Pass Details

Date: 01 August 2021
Orbit: 546 x 548 km, 53.1° (Epoch: 16 September)

Event Time Altitude Azimuth Distance (km) Brightness Sun altitude
Rises 21:09:18 0° 294° (WNW) 2,727 9.6 -4.6°
Reaches altitude 10° 21:11:46 10° 283° (WNW) 1,829 7.7 -4.9°
Maximum altitude 21:15:19 28° 224° (SW) 1,062 5.2 -5.5°
Drops below altitude 10° 21:18:51 10° 165° (SSE) 1,819 5.8 -6.0°
Enters shadow 21:20:24 - 157° (SSE) 2,373 6.3 -6.2°
